{"data":{"norad_id":63292,"epoch":"2026-09-22T22:20:15.758880Z","epoch_age_seconds":98798,"freshness":"FRESH","line1":"1 63292U 25055B   26265.93073795  .00005673  00000+0  32237-3 0  9993","line2":"2 63292  97.6628  47.0247 0035678 175.2318 184.9260 15.12761902 83850","mean_motion":15.12761902,"eccentricity":0.0035678,"inclination_deg":97.6628,"raan_deg":47.0247,"arg_perigee_deg":175.2318,"mean_anomaly_deg":184.926,"bstar":0.00032237,"rev_number":8385,"period_min":95.190128604918,"perigee_km":503.14267341808,"apogee_km":552.42054625041,"semimajor_km":6905.9186098342,"source":"CELESTRAK","updated_at":"2026-09-23T09:00:21.955890Z"}}